ABR812 EPWA-EDDP

Flight info

Callsign ABR812
Flight time 1h 4m
Altitude 36000
Route LOLSI DCT DIBLO DCT INDIG T174 KORUP/N0432F300 Z220 BEBKU/N0418F280 T950 LUXBO LUXBO1R
Aircraft B738/M-SDE2E3FGHIRWXY/LB1

Departure

Time 2026-05-08 01:16
Airport Warsaw Chopin Airport (EPWA)

Arrival

Time 2026-05-08 02:20
Airport Leipzig/Halle Airport (EDDP)
Time Latitude Longitude Altitude Speed Heading
2026-05-08 00:27 52.15926 20.98137 351 ft 0 kts 115°
2026-05-08 01:11 52.15921 20.98153 351 ft 2 kts 114°
2026-05-08 01:11 52.15912 20.98188 351 ft 5 kts 114°
2026-05-08 01:11 52.15946 20.98260 350 ft 12 kts 24°
2026-05-08 01:12 52.15991 20.98293 350 ft 0 kts 25°
2026-05-08 01:13 52.15995 20.98295 350 ft 3 kts 25°
2026-05-08 01:14 52.16045 20.98333 350 ft 10 kts 24°
2026-05-08 01:14 52.16111 20.98352 349 ft 9 kts 314°
2026-05-08 01:14 52.16124 20.98317 350 ft 0 kts 293°
2026-05-08 01:15 52.16167 20.98156 350 ft 48 kts 294°
2026-05-08 01:15 52.16420 20.97246 351 ft 127 kts 295°
2026-05-08 01:15 52.16876 20.95644 598 ft 169 kts 292°
2026-05-08 01:16 52.17307 20.93966 1629 ft 162 kts 285°
2026-05-08 01:16 52.17688 20.92365 2673 ft 155 kts 283°
2026-05-08 01:16 52.18068 20.90632 3300 ft 175 kts 282°
2026-05-08 01:16 52.18266 20.88633 4025 ft 187 kts 266°
2026-05-08 01:17 52.18129 20.86440 4685 ft 207 kts 258°
2026-05-08 01:17 52.17944 20.84051 5558 ft 222 kts 265°
2026-05-08 01:17 52.18074 20.81511 6314 ft 241 kts 278°
2026-05-08 01:17 52.18514 20.78747 6365 ft 268 kts 282°
2026-05-08 01:18 52.18997 20.75773 7433 ft 273 kts 281°
2026-05-08 01:18 52.19431 20.72861 8704 ft 269 kts 279°
2026-05-08 01:18 52.19611 20.69872 9693 ft 271 kts 263°
2026-05-08 01:18 52.19163 20.66879 10620 ft 277 kts 250°
2026-05-08 01:19 52.18451 20.63865 11302 ft 294 kts 248°
2026-05-08 01:19 52.17683 20.60709 11957 ft 310 kts 248°
2026-05-08 01:19 52.16896 20.57346 12588 ft 326 kts 249°
2026-05-08 01:19 52.16101 20.53837 13242 ft 340 kts 250°
2026-05-08 01:20 52.15422 20.50136 14123 ft 347 kts 258°
2026-05-08 01:20 52.15240 20.46207 15075 ft 352 kts 270°
2026-05-08 01:20 52.15371 20.42243 15949 ft 357 kts 274°
2026-05-08 01:20 52.15601 20.38208 16816 ft 361 kts 275°
2026-05-08 01:21 52.15843 20.34114 17663 ft 366 kts 274°
2026-05-08 01:21 52.16065 20.29980 18516 ft 370 kts 273°
2026-05-08 01:21 52.16264 20.25792 19287 ft 376 kts 273°
2026-05-08 01:21 52.16448 20.21526 20063 ft 380 kts 273°
2026-05-08 01:22 52.16621 20.17241 20776 ft 386 kts 273°
2026-05-08 01:22 52.16793 20.12852 21520 ft 390 kts 273°
2026-05-08 01:22 52.16962 20.08437 22217 ft 395 kts 273°
2026-05-08 01:22 52.17131 20.03991 22884 ft 400 kts 273°
2026-05-08 01:23 52.17302 19.99448 23541 ft 404 kts 273°
2026-05-08 01:23 52.17472 19.94877 24223 ft 408 kts 273°
2026-05-08 01:23 52.17598 19.90249 24859 ft 412 kts 271°
2026-05-08 01:23 52.17525 19.85557 25499 ft 416 kts 266°
2026-05-08 01:24 52.17259 19.80890 26106 ft 420 kts 264°
2026-05-08 01:24 52.16885 19.76172 26727 ft 424 kts 263°
2026-05-08 01:24 52.16456 19.71376 27278 ft 429 kts 262°
2026-05-08 01:24 52.16003 19.66552 27867 ft 432 kts 262°
2026-05-08 01:25 52.15543 19.61690 28437 ft 436 kts 262°
2026-05-08 01:25 52.15080 19.56816 28996 ft 439 kts 262°
2026-05-08 01:25 52.14618 19.51899 29525 ft 442 kts 262°
2026-05-08 01:25 52.14151 19.46872 30017 ft 447 kts 262°
2026-05-08 01:26 52.13690 19.41903 30539 ft 450 kts 262°
2026-05-08 01:26 52.13221 19.36842 31206 ft 449 kts 262°
2026-05-08 01:26 52.12760 19.31895 32106 ft 442 kts 262°
2026-05-08 01:26 52.12308 19.27070 32857 ft 439 kts 261°
2026-05-08 01:27 52.11848 19.22192 33423 ft 439 kts 261°
2026-05-08 01:27 52.11385 19.17302 33956 ft 439 kts 261°
2026-05-08 01:27 52.10920 19.12391 34677 ft 436 kts 261°
2026-05-08 01:27 52.10466 19.07604 35187 ft 435 kts 261°
2026-05-08 01:28 52.10000 19.02745 35545 ft 437 kts 261°
2026-05-08 01:28 52.09529 18.97859 35902 ft 438 kts 261°
2026-05-08 01:28 52.09058 18.92986 35954 ft 435 kts 261°
2026-05-08 01:29 52.08126 18.83363 35962 ft 428 kts 261°
2026-05-08 01:29 52.07196 18.73840 35963 ft 430 kts 261°
2026-05-08 01:30 52.06250 18.64294 35961 ft 428 kts 261°
2026-05-08 01:30 52.05303 18.54786 35960 ft 427 kts 261°
2026-05-08 01:31 52.04348 18.45281 35958 ft 427 kts 261°
2026-05-08 01:31 52.03388 18.35790 35956 ft 426 kts 261°
2026-05-08 01:32 52.02416 18.26298 35955 ft 425 kts 260°
2026-05-08 01:32 52.01445 18.16874 35951 ft 425 kts 260°
2026-05-08 01:33 52.00468 18.07453 35951 ft 426 kts 260°
2026-05-08 01:33 51.99475 17.97984 35948 ft 426 kts 259°
2026-05-08 01:34 51.98421 17.88512 35942 ft 426 kts 259°
2026-05-08 01:34 51.97350 17.79141 35941 ft 425 kts 259°
2026-05-08 01:35 51.96272 17.69770 35941 ft 425 kts 259°
2026-05-08 01:35 51.95190 17.60379 35939 ft 424 kts 259°
2026-05-08 01:36 51.94102 17.50992 35937 ft 424 kts 259°
2026-05-08 01:36 51.93016 17.41672 35936 ft 423 kts 259°
2026-05-08 01:37 51.91914 17.32287 35934 ft 422 kts 258°
2026-05-08 01:37 51.90821 17.23057 35944 ft 422 kts 258°
2026-05-08 01:38 51.89703 17.13701 35948 ft 424 kts 258°
2026-05-08 01:38 51.88592 17.04442 35948 ft 424 kts 258°
2026-05-08 01:39 51.87472 16.95182 35946 ft 423 kts 258°
2026-05-08 01:39 51.86332 16.85823 35942 ft 424 kts 258°
2026-05-08 01:40 51.85196 16.76542 35943 ft 422 kts 258°
2026-05-08 01:40 51.84047 16.67256 35938 ft 421 kts 258°
2026-05-08 01:41 51.82896 16.57993 35930 ft 421 kts 258°
2026-05-08 01:41 51.81738 16.48729 35925 ft 421 kts 258°
2026-05-08 01:42 51.80575 16.39504 35924 ft 421 kts 258°
2026-05-08 01:42 51.79596 16.31771 35920 ft 420 kts 257°
2026-05-08 01:43 51.78227 16.21056 35929 ft 421 kts 257°
2026-05-08 01:43 51.77042 16.11838 35927 ft 420 kts 257°
2026-05-08 01:44 51.75848 16.02629 35935 ft 420 kts 257°
2026-05-08 01:44 51.74657 15.93483 35935 ft 419 kts 257°
2026-05-08 01:45 51.73453 15.84290 35936 ft 420 kts 257°
2026-05-08 01:45 51.72240 15.75096 35938 ft 419 kts 257°
2026-05-08 01:46 51.71024 15.65929 35941 ft 419 kts 257°
2026-05-08 01:46 51.69804 15.56830 35937 ft 418 kts 257°
2026-05-08 01:47 51.68563 15.47622 35940 ft 419 kts 257°
2026-05-08 01:47 51.67332 15.38550 35940 ft 418 kts 257°
2026-05-08 01:48 51.65460 15.24863 35944 ft 419 kts 256°
2026-05-08 01:48 51.64209 15.15786 35947 ft 418 kts 256°
2026-05-08 01:49 51.62941 15.06635 35944 ft 418 kts 256°
2026-05-08 01:49 51.61679 14.97580 35943 ft 418 kts 256°
2026-05-08 01:50 51.60406 14.88509 35941 ft 416 kts 256°
2026-05-08 01:50 51.59142 14.79581 35942 ft 417 kts 256°
2026-05-08 01:51 51.57857 14.70542 35941 ft 416 kts 256°
2026-05-08 01:51 51.56576 14.61547 35941 ft 415 kts 256°
2026-05-08 01:52 51.55515 14.54096 35938 ft 414 kts 256°
2026-05-08 01:52 51.54040 14.43822 35942 ft 414 kts 256°
2026-05-08 01:53 51.52764 14.34987 35942 ft 414 kts 255°
2026-05-08 01:53 51.51451 14.25962 35938 ft 413 kts 255°
2026-05-08 01:54 51.50146 14.17051 35938 ft 414 kts 255°
2026-05-08 01:54 51.48842 14.08186 35461 ft 407 kts 255°
2026-05-08 01:55 51.48199 14.03828 34871 ft 405 kts 255°
2026-05-08 01:55 51.47551 13.99450 34167 ft 405 kts 255°
2026-05-08 01:55 51.46908 13.95113 33566 ft 401 kts 255°
2026-05-08 01:55 51.46299 13.90789 33092 ft 395 kts 256°
2026-05-08 01:56 51.45848 13.86486 32595 ft 391 kts 261°
2026-05-08 01:56 51.45655 13.82201 32103 ft 390 kts 265°
2026-05-08 01:56 51.45613 13.77818 31585 ft 397 kts 267°
2026-05-08 01:56 51.45639 13.73415 31067 ft 394 kts 268°
2026-05-08 01:57 51.45689 13.69110 30558 ft 388 kts 268°
2026-05-08 01:57 51.45740 13.64799 30036 ft 383 kts 268°
2026-05-08 01:57 51.45782 13.60590 29533 ft 377 kts 268°
2026-05-08 01:57 51.45816 13.56444 29039 ft 372 kts 268°
2026-05-08 01:58 51.45838 13.52303 28545 ft 370 kts 268°
2026-05-08 01:58 51.45853 13.48177 28057 ft 374 kts 268°
2026-05-08 01:58 51.45862 13.44041 27555 ft 370 kts 268°
2026-05-08 01:58 51.45874 13.39958 27063 ft 364 kts 268°
2026-05-08 01:59 51.45883 13.35953 26585 ft 359 kts 268°
2026-05-08 01:59 51.45889 13.32021 26109 ft 354 kts 267°
2026-05-08 01:59 51.45892 13.28138 25649 ft 357 kts 267°
2026-05-08 01:59 51.45891 13.24187 25159 ft 360 kts 267°
2026-05-08 02:00 51.45890 13.20195 24673 ft 355 kts 267°
2026-05-08 02:00 51.45889 13.17605 24358 ft 351 kts 267°
2026-05-08 02:00 51.45915 13.12481 23741 ft 345 kts 270°
2026-05-08 02:00 51.46171 13.08676 23272 ft 343 kts 278°
2026-05-08 02:01 51.46922 13.05033 22811 ft 353 kts 291°
2026-05-08 02:01 51.48083 13.01540 22325 ft 356 kts 296°
2026-05-08 02:01 51.49358 12.98183 21855 ft 352 kts 298°
2026-05-08 02:01 51.50650 12.94915 21386 ft 347 kts 298°
2026-05-08 02:02 51.51933 12.91683 20914 ft 343 kts 298°
2026-05-08 02:02 51.53195 12.88479 20465 ft 340 kts 298°
2026-05-08 02:02 51.54027 12.86353 20147 ft 338 kts 298°
2026-05-08 02:02 51.55678 12.82069 19523 ft 342 kts 295°
2026-05-08 02:03 51.56655 12.78649 19059 ft 336 kts 284°
2026-05-08 02:03 51.57087 12.75046 18596 ft 326 kts 271°
2026-05-08 02:03 51.57100 12.71427 18146 ft 320 kts 265°
2026-05-08 02:03 51.56971 12.67887 17713 ft 316 kts 264°
2026-05-08 02:04 51.56796 12.64342 17282 ft 322 kts 263°
2026-05-08 02:04 51.56619 12.60792 16827 ft 320 kts 263°
2026-05-08 02:04 51.56455 12.57297 16396 ft 315 kts 264°
2026-05-08 02:04 51.56302 12.53822 15947 ft 311 kts 264°
2026-05-08 02:05 51.56152 12.50373 15519 ft 307 kts 264°
2026-05-08 02:05 51.56004 12.46967 15085 ft 304 kts 264°
2026-05-08 02:05 51.55857 12.43610 14662 ft 301 kts 264°
2026-05-08 02:05 51.55706 12.40231 14231 ft 307 kts 264°
2026-05-08 02:06 51.55552 12.36840 13790 ft 304 kts 264°
2026-05-08 02:06 51.55402 12.33520 13373 ft 299 kts 263°
2026-05-08 02:06 51.55302 12.31326 13096 ft 297 kts 263°
2026-05-08 02:06 51.55103 12.26977 12536 ft 291 kts 263°
2026-05-08 02:07 51.55005 12.24835 12261 ft 288 kts 263°
2026-05-08 02:07 51.54857 12.21640 11860 ft 286 kts 263°
2026-05-08 02:07 51.54656 12.17353 11312 ft 290 kts 263°
2026-05-08 02:07 51.54507 12.14175 10898 ft 286 kts 263°
2026-05-08 02:08 51.54359 12.10997 10494 ft 282 kts 263°
2026-05-08 02:08 51.54214 12.07906 10216 ft 273 kts 263°
2026-05-08 02:08 51.54076 12.04938 10103 ft 259 kts 263°
2026-05-08 02:08 51.53943 12.02136 9953 ft 249 kts 263°
2026-05-08 02:09 51.53810 11.99404 9648 ft 245 kts 263°
2026-05-08 02:09 51.53674 11.96699 9326 ft 243 kts 263°
2026-05-08 02:09 51.53536 11.93933 9017 ft 249 kts 263°
2026-05-08 02:09 51.53400 11.91197 8707 ft 247 kts 263°
2026-05-08 02:10 51.53265 11.88485 8396 ft 243 kts 263°
2026-05-08 02:10 51.53132 11.85778 8097 ft 245 kts 263°
2026-05-08 02:10 51.52997 11.83041 7784 ft 248 kts 263°
2026-05-08 02:10 51.52861 11.80330 7476 ft 244 kts 263°
2026-05-08 02:11 51.52722 11.77630 7174 ft 240 kts 263°
2026-05-08 02:11 51.52584 11.74954 6886 ft 243 kts 263°
2026-05-08 02:11 51.52403 11.72230 6547 ft 245 kts 258°
2026-05-08 02:11 51.51821 11.69706 6242 ft 240 kts 237°
2026-05-08 02:12 51.50632 11.67921 5956 ft 239 kts 213°
2026-05-08 02:12 51.49072 11.66845 5654 ft 249 kts 198°
2026-05-08 02:12 51.47333 11.66574 5334 ft 254 kts 181°
2026-05-08 02:12 51.45580 11.66849 5014 ft 252 kts 177°
2026-05-08 02:13 51.43872 11.67174 4701 ft 249 kts 177°
2026-05-08 02:13 51.42160 11.67551 4390 ft 248 kts 171°
2026-05-08 02:13 51.40514 11.68580 3985 ft 260 kts 148°
2026-05-08 02:13 51.39377 11.70715 3800 ft 260 kts 117°
2026-05-08 02:14 51.38876 11.73497 3814 ft 258 kts 98°
2026-05-08 02:14 51.38875 11.76287 3819 ft 250 kts 86°
2026-05-08 02:14 51.39079 11.79024 3814 ft 242 kts 82°
2026-05-08 02:14 51.39317 11.81667 3813 ft 237 kts 83°
2026-05-08 02:15 51.39495 11.84292 3814 ft 237 kts 86°
2026-05-08 02:15 51.39611 11.86862 3792 ft 223 kts 87°
2026-05-08 02:15 51.39704 11.89281 3641 ft 215 kts 86°
2026-05-08 02:15 51.39842 11.91605 3471 ft 207 kts 84°
2026-05-08 02:16 51.39964 11.93879 3258 ft 202 kts 88°
2026-05-08 02:16 51.40000 11.96049 3067 ft 188 kts 89°
2026-05-08 02:16 51.40070 11.98050 2924 ft 176 kts 86°
2026-05-08 02:16 51.40168 11.99917 2791 ft 166 kts 86°
2026-05-08 02:17 51.40261 12.01772 2555 ft 163 kts 86°
2026-05-08 02:17 51.40346 12.03565 2320 ft 161 kts 87°
2026-05-08 02:17 51.40432 12.05352 2101 ft 162 kts 85°
2026-05-08 02:17 51.40522 12.07104 1892 ft 161 kts 87°
2026-05-08 02:18 51.40609 12.08897 1678 ft 160 kts 86°
2026-05-08 02:18 51.40702 12.10689 1465 ft 157 kts 88°
2026-05-08 02:18 51.40788 12.12420 1343 ft 158 kts 86°
2026-05-08 02:18 51.40884 12.14138 1215 ft 154 kts 86°
2026-05-08 02:19 51.40922 12.15268 1142 ft 152 kts 88°
2026-05-08 02:19 51.41018 12.17514 908 ft 151 kts 86°
2026-05-08 02:19 51.41098 12.19148 706 ft 145 kts 88°
2026-05-08 02:19 51.41173 12.20701 489 ft 137 kts 88°
2026-05-08 02:20 51.41237 12.22119 459 ft 107 kts 85°
2026-05-08 02:20 51.41275 12.23002 465 ft 60 kts 88°
2026-05-08 02:20 51.41302 12.23595 465 ft 50 kts 82°
2026-05-08 02:20 51.41283 12.24014 465 ft 33 kts 109°
2026-05-08 02:21 51.41211 12.24267 466 ft 16 kts 117°
2026-05-08 02:21 51.41190 12.24332 466 ft 1 kts 117°
2026-05-08 02:21 51.41186 12.24343 466 ft 0 kts 117°
2026-05-08 02:21 51.41180 12.24362 466 ft 1 kts 117°
2026-05-08 02:22 51.41171 12.24383 466 ft 5 kts 137°
2026-05-08 02:22 51.41096 12.24375 465 ft 16 kts 225°
2026-05-08 02:22 51.41079 12.24220 465 ft 13 kts 265°
2026-05-08 02:22 51.41031 12.24123 465 ft 12 kts 174°
2026-05-08 02:23 51.40934 12.24124 464 ft 11 kts 219°
2026-05-08 02:23 51.40921 12.24038 464 ft 4 kts 266°
2026-05-08 02:23 51.40920 12.24021 464 ft 0 kts 265°